Location: Boiro
(42.6475°N, 8.8834°W)
Time: 12:21:51
(UTC+01:00)

Vanguard 1 Rocket - Pass Details

Date: 03 December 2021
Orbit: 651 x 4224 km, 34.3° (Epoch: 21 January)

Event Time Altitude Azimuth Distance (km) Brightness Sun altitude
Exits shadow 05:57:50 39° 238° (WSW) 3,321 9.7 -30.6°
Maximum altitude 06:04:47 65° 174° (S) 3,215 10.0 -29.3°
Drops below altitude 10° 06:28:15 10° 100° (E) 7,330 13.0 -25.0°
Sets 06:34:26 0° 98° (E) 8,466 13.8 -23.9°
